sat.trackr.live / text

‹ back to catalog

ISAT

NORAD 43879 · 2018-111D

PAYLOAD ACTIVE UNKNOWN

§ Identity

Operator
Country
GER
Launch date
2018-12-27
Launch site
VOSTO
Launch vehicle
Mass (kg)
RCS (m²)

External: N2YO · Heavens-Above · Gunter

§ Orbital elements

Epoch: 2026-09-19T02:33:49.223808Z

Period
89.96 min
Inclination
97.5724°
Eccentricity
0.0009428
Mean motion
16.00711699 rev/d
Perigee alt
266.2 km
Apogee alt
278.7 km
Semi-major
6,650.6 km
B*
1.1229e-3
RAAN
206.3379°
Arg perigee
140.9659°
Mean anomaly
219.2301°
Rev number
42,597

§ Raw data

ISAT1 43879U 18111D   26262.10681972  .00593785  16054-3  11229-2 0  99982 43879  97.5724 206.3379 0009428 140.9659 219.2301 16.00711699425979

JSON: /api/v1/satellites/43879 · /tle

For live sub-satellite position, see the globe view (requires WebGL).

§ Visibility from observer

Set your observer location to see the next 7 days of passes ≥ 10°. The values pass through the URL so the page stays shareable.

No JS? Fill the form by hand. The geolocation button needs JavaScript.

§ Radio — SatNOGS DB

ModeDescriptionDownlinkUplink
GMSK GMSK4k8 Mobitex TLM 435.700 MHz
DSTAR MODE U/U DSTAR VOICE 435.525 MHz 437.325 MHz

2 transmitters · refreshed weekly from db.satnogs.org